Regional Weather Roundup
Issued by NWS Cleveland, OH

Home | Current Version | Previous Version | Text Only | Print | Product List | Glossary Off
Versions: 1 2 3 4 5 6 7 8 9 10 11 12 13 14 15 16 17 18 19 20 21 22 23 24 25 26 27 28 29 30 31 32 33 34 35 36 37 38 39 40 41 42 43 44 45 46 47 48 49 50

000
ASUS41 KCLE 010102
RWRCLE
OHIO REGIONAL WEATHER ROUNDUP
NATIONAL WEATHER SERVICE CLEVELAND, OH
800 PM EST SAT JAN 31 2015

NOTE: "FAIR" INDICATES FEW OR NO CLOUDS BELOW 12,000 FEET WITH NO
SIGNIFICANT WEATHER AND/OR OBSTRUCTIONS TO VISIBILITY.

OHZ001>008-015>018-024>027-034-035-043-044-010200-
   NORTHWEST OHIO

CITY           SKY/WX    TMP DP  RH WIND       PRES   REMARKS
DEFIANCE       CLOUDY    34  27  75 SW6       30.20S WCI  29
FINDLAY        CLOUDY    33  25  72 S9        30.20S WCI  25
TOLEDO EXPRESS FAIR      29  24  82 S3        30.20R
TOLEDO EXEC    FAIR      29  23  78 S6        30.21S WCI  23
LIMA           CLOUDY    35  25  66 SW7       30.21R WCI  29
$$

OHZ009>014-019>023-028>033-038-089-010200-
   NORTHEAST OHIO

CITY           SKY/WX    TMP DP  RH WIND       PRES   REMARKS
CLE-HOPKINS    CLOUDY    30  19  63 SW10      30.23F WCI  21
CLE-LAKEFRONT  CLOUDY    32  19  58 S8        30.21F WCI  25
CUY CO. ARPT   NOT AVBL
LORAIN-ELYRIA  CLOUDY    30  20  66 SW13      30.21F WCI  20
ASHTABULA      CLOUDY    25  15  66 S7        30.21F WCI  17
AKRON-CANTON   CLOUDY    28  17  63 SW12      30.22F WCI  18
WOOSTER        FAIR      26  17  68 S8        30.22F WCI  18
MANSFIELD      FAIR      27  19  72 S13       30.20F WCI  16
YOUNGSTOWN     CLOUDY    24  15  68 S7        30.21S WCI  16
$$

OHZ042-051>053-060>062-070>072-077>081-010200-
  SOUTHWEST OHIO

CITY           SKY/WX    TMP DP  RH WIND       PRES   REMARKS
CINC-COVINGTON CLOUDY    36  22  56 SW5       30.26F
CINC-LUNKEN    CLOUDY    33  24  69 SW3       30.30S
HAMILTON       CLOUDY    37  22  54 CALM      30.28S
DAYTON         CLOUDY    35  23  61 SW10      30.25R WCI  27
WRIGHT-PAT AFB NOT AVBL
DAYTON GENERAL MOCLDY    35  21  56 SW7       30.24S WCI  29
WILMINGTON     CLOUDY    33  22  63 S7        30.25F WCI  27
$$

OHZ036-037-039>041-045>050-054>059-063>069-073>076-082>088-010200-
  CENTRAL AND SOUTHEAST OHIO

CITY           SKY/WX    TMP DP  RH WIND       PRES   REMARKS
COLUMBUS       CLOUDY    33  22  63 S6        30.26S WCI  28
OSU AIRPORT    CLOUDY    33  22  63 S6        30.24F WCI  28
BOLTON FIELD   NOT AVBL
RICKENBACK AFB NOT AVBL
NEWARK         CLOUDY    32  22  66 S5        30.25F WCI  27
MARION         CLOUDY    30  22  72 S8        30.23S WCI  22
LANCASTER      CLOUDY    32  23  69 S3        30.27S
ZANESVILLE     FAIR      24  15  68 SE3       30.26F
NEW PHILLY     FAIR      27  16  63 SE5       30.26F WCI  22
$$


USA.gov is the U.S. government's official web portal to all federal, state and local government web resources and services.